Stations météo

réclame
Mon MeteoGroup
Warcop, Grande-Bretagne (3226): Température de l'air & dewpoint: 22.10.2020 14:00:00 - 28.10.2020 14:00:00 (GMT)Warcop, Grande-Bretagne (3226): Température de l'air -20cm & Température de l'air -100cm: 22.10.2020 14:00:00 - 28.10.2020 14:00:00 (GMT)Warcop, Grande-Bretagne (3226): Vitesse du vent & gusts: 22.10.2020 14:00:00 - 28.10.2020 14:00:00 (GMT)Warcop, Grande-Bretagne (3226): Direction du vent: 22.10.2020 14:00:00 - 28.10.2020 14:00:00 (GMT)Warcop, Grande-Bretagne (3226): reduced air pressure: 22.10.2020 14:00:00 - 28.10.2020 14:00:00 (GMT)Warcop, Grande-Bretagne (3226): visibility: 22.10.2020 14:00:00 - 28.10.2020 14:00:00 (GMT)Warcop, Grande-Bretagne (3226): Quantités de précipitations: 22.10.2020 14:00:00 - 28.10.2020 14:00:00 (GMT)
Date & Time tt [°C] td [°C] tt -20cm [°C] tt -100cm [°C] ff [km/h] ff [knt] fx [km/h] fx [knt] dd ppp [hPa] vv [km] rr [mm]
28.10.2020 14:00:00 8,9 4,3 - - 29 16 46 25 WSW 993,6 30 0,0
28.10.2020 13:00:00 9,1 4,0 - - 28 15 55 30 WSW 993,5 23 0,0
28.10.2020 12:00:00 8,2 4,2 - - 16 9 52 28 W 993,6 35 0,0
28.10.2020 11:00:00 8,2 5,9 - - 15 8 - - SW 993,5 30 0,2
28.10.2020 10:00:00 7,3 5,9 - - 9 5 54 29 WSW 993,5 30 1,6
28.10.2020 09:00:00 5,8 4,9 8,7 10,2 16 9 - - WNW 993,1 3,7 3,4
28.10.2020 08:00:00 5,7 4,5 - - 15 8 - - WSW 992,6 9 0,8
28.10.2020 07:00:00 6,8 5,0 - - 22 12 - - SW 992,0 40 0,6
28.10.2020 06:00:00 6,4 5,1 - - 9 5 - - SSW 991,8 9 0,2
28.10.2020 05:00:00 6,5 5,4 - - 13 7 - - SSW 991,5 28 0,2
28.10.2020 04:00:00 6,6 5,4 - - 8 4 - - S 991,3 29 0,4
28.10.2020 03:00:00 7,1 5,6 - - 16 9 - - SW 991,2 23 0,0
28.10.2020 02:00:00 7,2 5,5 - - 15 8 - - SSW 991,1 20 0,0
28.10.2020 01:00:00 7,2 4,8 - - 13 7 - - SW 990,8 30 0,0
28.10.2020 00:00:00 6,8 4,7 - - 8 4 - - W 991,0 13 0,2
27.10.2020 23:00:00 6,9 4,3 - - 13 7 - - SW 990,7 13 0,0
27.10.2020 22:00:00 6,6 4,3 - - 15 8 - - SW 990,7 30 0,0
27.10.2020 21:00:00 5,8 4,0 - - 9 5 - - SSW 990,3 27 0,0
27.10.2020 20:00:00 5,4 4,0 - - 5 3 - - NW 989,6 19 0,0
27.10.2020 19:00:00 4,4 3,3 - - 4 2 - - NE 988,9 11 0,0
27.10.2020 18:00:00 6,5 5,5 - - 8 4 - - W 987,8 26 0,4
27.10.2020 17:00:00 7,8 5,4 - - 16 9 - - W 987,4 50 0,6
27.10.2020 16:00:00 8,7 6,5 - - 28 15 46 25 WNW 986,2 50 0,4
27.10.2020 15:00:00 9,0 8,3 - - 16 9 - - SSE 985,3 5 2,2
27.10.2020 14:00:00 8,9 7,5 - - 21 11 - - SSE 986,1 5 1,6
27.10.2020 13:00:00 8,4 7,1 - - 24 13 - - SSE 987,6 5 0,2
27.10.2020 12:00:00 8,3 6,7 - - 24 13 - - SSE 989,2 4,5 0,0
27.10.2020 11:00:00 7,7 6,5 - - 21 11 - - SSE 990,6 17 0,0
27.10.2020 10:00:00 6,8 5,8 - - 18 10 - - SSE 992,0 29 0,4
27.10.2020 09:00:00 6,7 5,5 9,0 10,4 15 8 - - SSE 992,5 35 0,2
27.10.2020 08:00:00 6,9 5,1 - - 11 6 - - SSE 993,2 45 0,0
27.10.2020 07:00:00 6,4 5,3 - - 9 5 - - SSE 993,5 50 0,0
27.10.2020 06:00:00 5,5 4,4 - - 4 2 - - SSE 993,8 50 0,0
27.10.2020 05:00:00 4,9 4,0 - - 4 2 - - S 994,4 40 0,0
27.10.2020 04:00:00 6,2 4,5 - - 5 3 - - W 994,4 45 0,0
27.10.2020 03:00:00 6,8 5,3 - - 11 6 - - W 994,4 40 0,0
27.10.2020 02:00:00 5,9 4,5 - - 4 2 - - SW 995,0 50 0,0
27.10.2020 01:00:00 6,7 5,4 - - 11 6 - - WSW 994,9 45 0,0
27.10.2020 00:00:00 7,4 5,5 - - 16 9 - - WNW 994,7 30 0,2
26.10.2020 23:00:00 8,2 5,4 - - 21 11 - - WNW 994,6 30 0,0
26.10.2020 22:00:00 8,3 5,5 - - 22 12 - - WNW 994,3 45 0,0
26.10.2020 21:00:00 8,1 5,7 - - 18 10 - - WNW 994,0 35 0,0
26.10.2020 20:00:00 8,4 5,6 - - 24 13 - - WNW 993,4 30 0,0
26.10.2020 19:00:00 8,6 5,1 - - 22 12 - - WNW 993,0 45 0,0
26.10.2020 18:00:00 8,7 5,8 - - 24 13 50 27 WNW 992,2 35 0,0
26.10.2020 17:00:00 8,9 5,5 - - 29 16 50 27 WNW 991,4 30 0,0
26.10.2020 16:00:00 9,1 5,5 - - 29 16 52 28 WNW 990,9 40 0,2
26.10.2020 15:00:00 9,4 5,5 - - 24 13 46 25 W 990,6 30 0,0
26.10.2020 14:00:00 8,0 5,9 - - 13 7 46 25 WNW 990,8 50 0,0
26.10.2020 13:00:00 8,7 6,0 - - 21 11 - - W 990,1 26 0,0
26.10.2020 12:00:00 9,7 6,2 - - 29 16 46 25 W 989,3 45 0,0
26.10.2020 11:00:00 8,9 7,2 - - 16 9 - - WNW 988,9 45 0,2
26.10.2020 10:00:00 7,8 7,0 - - 11 6 - - W 988,5 23 0,2
26.10.2020 09:00:00 7,8 7,2 9,2 10,5 11 6 - - WSW 987,7 45 0,8
26.10.2020 08:00:00 7,5 7,1 - - 11 6 - - SW 987,4 30 1,0
26.10.2020 07:00:00 7,1 6,4 - - 21 11 - - SW 986,9 12 1,4
26.10.2020 06:00:00 7,3 6,2 - - 22 12 - - SSW 986,6 14 0,8
26.10.2020 05:00:00 7,2 6,0 - - 21 11 - - SSW 987,0 7 0,6
26.10.2020 04:00:00 7,3 6,0 - - 22 12 - - SSW 987,4 6 0,2
26.10.2020 03:00:00 7,1 6,2 - - 24 13 - - SW 987,7 9 0,8
26.10.2020 02:00:00 7,0 5,9 - - 16 9 - - SSW 988,2 5 0,0
26.10.2020 01:00:00 7,0 5,9 - - 18 10 - - SSW 988,5 25 0,4
26.10.2020 00:00:00 6,8 5,6 - - 16 9 - - SSW 989,0 8 1,4
25.10.2020 23:00:00 7,3 4,9 - - 9 5 - - S 989,2 29 0,0
25.10.2020 22:00:00 7,2 4,6 - - 13 7 - - S 989,4 50 0,0
25.10.2020 21:00:00 7,1 4,5 - - 18 10 - - S 989,5 45 0,0
25.10.2020 20:00:00 7,5 4,2 - - 18 10 - - SSE 989,9 50 0,0
25.10.2020 19:00:00 7,4 4,1 - - 18 10 - - SSE 990,0 50 0,0
25.10.2020 18:00:00 7,6 4,6 - - 21 11 - - S 990,1 50 0,0
25.10.2020 17:00:00 8,1 5,1 - - 16 9 - - S 989,7 40 0,0
25.10.2020 16:00:00 8,4 5,2 - - 18 10 46 25 SSW 989,2 40 0,0
25.10.2020 15:00:00 9,2 5,5 - - 24 13 - - SW 988,9 35 0,0
25.10.2020 14:00:00 8,9 6,0 - - 24 13 - - SW 988,8 27 1,0
25.10.2020 13:00:00 6,9 4,5 - - 28 15 52 28 SW 989,2 13 0,0
25.10.2020 12:00:00 8,2 4,5 - - 39 21 57 31 SW 988,6 40 0,0
25.10.2020 11:00:00 9,1 5,9 - - 31 17 57 31 SW 988,5 30 0,2
25.10.2020 10:00:00 8,7 6,0 - - 37 20 63 34 SW 988,0 40 0,0
25.10.2020 09:00:00 7,6 4,6 9,2 10,7 29 16 55 30 SW 987,4 50 0,0
25.10.2020 08:00:00 7,2 4,4 - - 11 6 - - SSE 987,5 50 0,0
25.10.2020 07:00:00 6,7 4,4 - - 18 10 - - SE 987,4 50 0,2
25.10.2020 06:00:00 6,5 4,9 - - 26 14 46 25 SSW 987,9 13 0,6
25.10.2020 05:00:00 7,1 4,1 - - 21 11 - - S 987,7 50 0,0
25.10.2020 04:00:00 6,4 3,6 - - 21 11 - - S 988,0 50 0,0
25.10.2020 03:00:00 6,3 4,8 - - 11 6 50 27 SW 988,6 45 0,2
25.10.2020 02:00:00 6,5 3,6 - - 18 10 - - S 988,6 50 0,0
25.10.2020 01:00:00 6,1 4,0 - - 9 5 - - S 989,0 50 0,0
25.10.2020 00:00:00 - - - - - - - - - - - -
24.10.2020 23:00:00 6,3 4,7 - - 11 6 - - SSW 988,9 50 0,4
24.10.2020 22:00:00 7,6 5,1 - - 22 12 - - WSW 988,5 50 0,0
24.10.2020 21:00:00 5,8 4,5 - - 4 2 - - ESE 988,8 50 0,0
24.10.2020 20:00:00 6,3 5,1 - - 8 4 - - SSE 988,9 50 0,2
24.10.2020 19:00:00 6,1 5,1 - - 8 4 - - S 989,4 8 1,0
24.10.2020 18:00:00 7,0 6,0 - - 2 1 - - S 989,3 18 1,0
24.10.2020 17:00:00 7,6 5,4 - - 13 7 - - S 989,4 50 0,2
24.10.2020 16:00:00 8,1 5,6 - - 15 8 - - SSE 990,0 50 0,0
24.10.2020 15:00:00 8,8 6,6 - - 18 10 - - S 990,6 35 0,0
24.10.2020 14:00:00 8,7 6,9 - - 5 3 - - S 991,8 35 0,0
24.10.2020 13:00:00 8,1 6,9 - - 11 6 - - SSE 993,2 40 0,4
24.10.2020 12:00:00 8,2 7,1 - - 8 4 - - SSW 993,2 15 1,2
24.10.2020 11:00:00 8,9 7,6 - - 16 9 61 33 W 993,1 17 0,4
24.10.2020 10:00:00 11,2 9,4 - - 39 21 74 40 SSW 991,8 12 0,0
24.10.2020 09:00:00 11,0 8,6 9,5 10,7 31 17 50 27 SSW 991,0 50 0,0
24.10.2020 08:00:00 9,4 8,0 - - 24 13 - - S 992,8 10 0,0
24.10.2020 07:00:00 9,2 6,8 - - 18 10 - - SSE 993,6 27 0,0
24.10.2020 06:00:00 8,4 5,6 - - 24 13 46 25 SSE 995,4 50 0,0
24.10.2020 05:00:00 8,0 5,1 - - 35 19 46 25 S 996,9 45 0,0
24.10.2020 04:00:00 6,8 4,8 - - 28 15 - - S 997,9 40 0,0
24.10.2020 03:00:00 7,6 4,4 - - 28 15 - - S 999,2 45 0,0
24.10.2020 02:00:00 7,2 4,6 - - 28 15 - - S 1000,6 50 0,0
24.10.2020 01:00:00 6,8 4,6 - - 28 15 - - S 1001,5 50 0,0
24.10.2020 00:00:00 6,0 4,3 - - 15 8 - - SSE 1002,5 50 0,0
23.10.2020 23:00:00 6,9 5,5 - - 13 7 - - SSE 1003,4 50 0,0
23.10.2020 22:00:00 6,2 4,3 - - 16 9 - - SSE 1004,0 50 0,0
23.10.2020 21:00:00 5,8 4,1 - - 13 7 - - SSE 1004,1 45 0,0
23.10.2020 20:00:00 5,2 3,4 - - 9 5 - - SSW 1004,7 45 0,0
23.10.2020 19:00:00 6,2 3,9 - - 15 8 - - SSE 1004,7 50 0,0
23.10.2020 18:00:00 5,1 2,5 - - 4 2 - - WNW 1004,2 50 0,0
23.10.2020 17:00:00 7,2 3,7 - - 11 6 - - WSW 1003,1 45 0,0
23.10.2020 16:00:00 8,4 2,9 - - 15 8 - - W 1002,9 40 0,0
23.10.2020 15:00:00 9,6 5,1 - - 13 7 - - WNW 1002,6 35 0,0
23.10.2020 14:00:00 8,2 6,2 - - 11 6 - - WNW 1002,0 50 0,2
23.10.2020 13:00:00 7,9 7,4 - - 9 5 - - WNW 1001,5 50 0,4
23.10.2020 12:00:00 7,6 7,1 - - 15 8 - - SSW 1001,5 4,6 0,2
23.10.2020 11:00:00 8,0 6,4 - - 21 11 - - S 1001,4 45 0,0
23.10.2020 10:00:00 7,1 5,3 - - 22 12 - - SSE 1001,7 45 0,0
23.10.2020 09:00:00 7,5 4,9 10,0 10,7 16 9 - - SSW 1002,3 45 0,0
23.10.2020 08:00:00 7,1 3,9 - - 9 5 - - SW 1002,5 50 0,0
23.10.2020 07:00:00 6,7 3,2 - - 11 6 - - SSE 1002,7 50 0,0
23.10.2020 06:00:00 6,6 2,8 - - 5 3 - - SE 1003,2 50 0,0
23.10.2020 05:00:00 6,8 3,2 - - 16 9 - - SSW 1003,6 50 0,0
23.10.2020 04:00:00 6,6 3,2 - - 9 5 - - S 1004,0 50 0,0
23.10.2020 03:00:00 6,7 3,2 - - 15 8 - - SSW 1004,5 50 0,0
23.10.2020 02:00:00 6,7 3,7 - - 8 4 - - S 1005,1 50 0,0
23.10.2020 01:00:00 6,8 4,2 - - 9 5 - - S 1005,6 50 0,0
23.10.2020 00:00:00 7,0 3,8 - - 2 1 - - SSW 1005,9 50 0,0
22.10.2020 23:00:00 6,8 4,5 - - 8 4 - - SW 1006,4 50 0,0
22.10.2020 22:00:00 6,9 5,1 - - 9 5 - - SSW 1006,3 45 0,0
22.10.2020 21:00:00 7,1 5,6 - - 11 6 - - SSW 1006,7 50 0,0
22.10.2020 20:00:00 7,0 4,7 - - 8 4 - - W 1006,4 50 0,0
22.10.2020 19:00:00 7,9 6,2 - - 9 5 - - W 1006,2 50 0,0
22.10.2020 18:00:00 7,9 6,7 - - 9 5 - - W 1005,9 50 0,0
22.10.2020 17:00:00 8,3 7,5 - - 15 8 - - WSW 1005,3 50 0,2
22.10.2020 16:00:00 9,4 8,2 - - 15 8 - - WNW 1004,4 50 0,8
22.10.2020 15:00:00 9,5 8,4 - - 21 11 - - WSW 1003,6 50 0,0
22.10.2020 14:00:00 9,7 8,9 - - 16 9 - - WSW 1002,9 15 0,0

tt = Température de l'air
td = dewpoint
tt -20cm = Température de l'air -20cm
tt -100cm = Température de l'air -100cm
ff = Vitesse du vent
fx = gusts
dd = Direction du vent
ppp = reduced air pressure
vv = visibility
rr = Quantités de précipitations

stations d'obs. à proximité